Weather History for 87097 - October, 2013

Change the Weather History Date:

Friday, October 4, 2013

  Actual Average Record
Temperature  
Mean Temperature 66 °F -  
Max Temperature 80 °F 80 °F - ()
Min Temperature 53 °F 60 °F - ()
Cooling Degree Days 2    
Growing Degree Days 16 (Base 50)    
Moisture  
Dew Point 59 °F    
Average Humidity 76    
Maximum Humidity 100    
Minimum Humidity 32    
Precipitation  
Precipitation 0.00 in - - ()
Sea Level Pressure  
Sea Level Pressure 30.02 in    
Wind  
Wind Speed 8 mph ()    
Max Wind Speed 18 mph    
Max Gust Speed -    
Visibility 3.4 miles    
Events Fog    
T = Trace of Precipitation, MM = Missing Value Source: Averaged Metar Reports

Daily Weather History Graph

Daily Weather History Graph

Search for Another Location

Airport or City:

Trip Planner

Search our weather history database for the weather conditions in past years. The results will help you decide how hot, cold, wet, or windy it might be!

Date:

Astronomy

Oct. 04, 2013 Rise Set
Actual Time 6:14 AM ART 6:39 PM ART
Civil Twilight 5:51 AM ART 7:02 PM ART
Nautical Twilight 5:24 AM ART 7:29 PM ART
Astronomical Twilight 4:56 AM ART 7:56 PM ART
Moon 5:44 AM ART (10/4) 6:28 PM ART (10/4)
Length of Visible Light 13h 11m
Length of Day
12h 24m
Waning Crescent, 0% of the Moon is Illuminated
Oct 4
Waning Crescent
Oct 4
New
Oct 11
First Quarter
Oct 18
Full
Oct 26
Last Quarter

Hourly Weather History & Observations

Time (ART) Temp. Dew Point Humidity Pressure Visibility Wind Dir Wind Speed Gust Speed Precip Events Conditions
12:00 AM 66.2 °F 66.2 °F 100% 29.98 in 0.4 mi NE 3.5 mph - N/A Fog Fog
1:00 AM 66.2 °F 66.2 °F 100% 29.95 in 0.4 mi North 3.5 mph - N/A Fog Fog
2:00 AM 66.2 °F 66.2 °F 100% 29.95 in 0.4 mi West 3.5 mph - N/A Fog Fog
3:00 AM 65 °F 65 °F 100% 29.92 in 1 mi SW 6.9 mph - - Fog Partial Fog
3:00 AM 66.2 °F 66.2 °F 100% 29.98 in 0.6 mi SW 6.9 mph - N/A Fog Fog
4:00 AM 66.2 °F 66.2 °F 100% 29.95 in 0.6 mi SW 4.6 mph - N/A Fog Fog
5:00 AM 66.2 °F 66.2 °F 100% 29.98 in 0.6 mi SSW 11.5 mph - N/A Fog Fog
6:00 AM 66.2 °F 66.2 °F 100% 30.01 in 0.6 mi SSW 9.2 mph - N/A Fog Fog
7:00 AM 66.2 °F 66.2 °F 100% 30.04 in 0.7 mi SW 9.2 mph - N/A   Overcast
8:00 AM 66.2 °F 66.2 °F 100% 30.06 in 3.1 mi SSW 11.5 mph - N/A   Scattered Clouds
9:00 AM 67 °F 64 °F 85% 30.01 in 12 mi South 13.8 mph - -   Partly Cloudy
9:00 AM 66.2 °F 64.4 °F 94% 30.06 in - South 13.8 mph - N/A   Clear
10:00 AM 68.0 °F 62.6 °F 83% 30.04 in - South 9.2 mph - N/A   Clear
11:00 AM 73.4 °F 60.8 °F 65% 30.04 in - South 9.2 mph - N/A   Clear
12:00 PM 73.4 °F 60.8 °F 65% 30.06 in - SSW 11.5 mph - N/A   Clear
1:00 PM 75.2 °F 57.2 °F 53% 30.06 in - South 11.5 mph - N/A   Clear
2:00 PM 77.0 °F 55.4 °F 47% 30.04 in - SSW 18.4 mph - N/A   Clear
3:00 PM 78 °F 54 °F 32% 29.96 in 12 mi SW 6.9 mph - -   Partly Cloudy
3:00 PM 78.8 °F 53.6 °F 42% 30.01 in - SW 9.2 mph - N/A   Clear
4:00 PM 78.8 °F 51.8 °F 39% 30.01 in - SSW 18.4 mph - N/A   Clear
5:00 PM 73.4 °F 51.8 °F 47% 30.01 in - SSW 13.8 mph - N/A   Clear
7:00 PM 69.8 °F 51.8 °F 53% 30.04 in - SSW 11.5 mph - N/A   Clear
8:00 PM 66.2 °F 51.8 °F 60% 30.06 in - South 11.5 mph - N/A   Clear
9:00 PM 63 °F 49 °F 49% 30.04 in 12 mi South 11.5 mph - -   Scattered Clouds
9:00 PM 53.6 °F 51.8 °F 94% 30.09 in - SW 5.8 mph - N/A   Clear
10:00 PM 60.8 °F 50.0 °F 68% 30.09 in - South 9.2 mph - N/A   Clear
11:00 PM 60.8 °F 50.0 °F 68% 30.09 in - South 15.0 mph - N/A   Clear